Cody, WY

1:35 PM MST on November 22, 2019 (GMT -0700)
Yellowstone Regional

Weather History for KCOD - October, 2019

Change the Weather History Date:

Sunday, October 20, 2019

  Actual Average Record
Temperature  
Mean Temperature 36 °F -  
Max Temperature 42 °F 61 °F 81 °F (1921)
Min Temperature 30 °F 34 °F 15 °F (1949)
Degree Days  
Heating Degree Days 30    
Moisture  
Dew Point 31 °F    
Average Humidity 86    
Maximum Humidity 96    
Minimum Humidity 65    
Precipitation  
Precipitation 0.06 in - - ()
Sea Level Pressure  
Sea Level Pressure 29.82 in    
Wind  
Wind Speed 9 mph (North)    
Max Wind Speed 16 mph    
Max Gust Speed 23 mph    
Visibility 8 miles    
Events Rain , Snow    
Averages and records for this station are not official NWS values.
T = Trace of Precipitation, MM = Missing Value Source: NWS Daily Summary

Daily Weather History Graph

Daily Weather History Graph

Search for Another Location

Airport or City:

Astronomy

Oct. 20, 2019 Rise Set
Actual Time 7:37 AM MDT 6:23 PM MDT
Civil Twilight 7:07 AM MDT 6:53 PM MDT
Nautical Twilight 6:34 AM MDT 7:26 PM MDT
Astronomical Twilight 6:00 AM MDT 8:00 PM MDT
Moon 11:26 PM MDT (10/20) 2:17 PM MDT (10/20)
Length of Visible Light 11h 45m
Length of Day
10h 46m
Waning Gibbous, 58% of the Moon is Illuminated
Oct 20
Waning Gibbous
Oct 21
Last Quarter
Oct 27
New
Nov 4
First Quarter
Nov 12
Full

Hourly Weather History & Observations

Time (MDT) Temp. Windchill Dew Point Humidity Pressure Visibility Wind Dir Wind Speed Gust Speed Precip Events Conditions
12:04 AM 35.6 °F 26.6 °F 32.0 °F 87% 29.56 in 10.0 mi NE 13.8 mph - 0.00 in Rain Light Rain
12:08 AM 33.8 °F 25.3 °F 32.0 °F 93% 29.56 in 8.0 mi NNE 11.5 mph - 0.00 in Rain Light Rain
12:23 AM 33.8 °F 25.8 °F 30.2 °F 87% 29.57 in 8.0 mi NNE 10.4 mph - 0.00 in Snow Light Snow
12:47 AM 32.0 °F 25.6 °F 30.2 °F 93% 29.57 in 2.0 mi North 6.9 mph - 0.00 in Snow Light Snow
12:56 AM 32.0 °F 24.2 °F 30.9 °F 96% 29.59 in 1.8 mi North 9.2 mph - 0.00 in Snow Light Snow
1:22 AM 33.8 °F 26.4 °F 32.0 °F 93% 29.59 in 6.0 mi NW 9.2 mph - 0.00 in Snow Light Snow
1:35 AM 33.8 °F 24.8 °F 32.0 °F 93% 29.60 in 5.0 mi NNW 12.7 mph - 0.00 in Snow Light Snow
1:51 AM 33.8 °F 27.0 °F 30.2 °F 87% 29.61 in 2.5 mi North 8.1 mph - 0.00 in Snow Light Snow
1:52 AM 33.8 °F 26.4 °F 30.2 °F 87% 29.61 in 3.0 mi North 9.2 mph - 0.00 in Snow Light Snow
1:56 AM 33.1 °F 26.9 °F 30.9 °F 92% 29.63 in 2.5 mi NNW 6.9 mph - 0.00 in Snow Light Snow
2:21 AM 33.8 °F 27.0 °F 30.2 °F 87% 29.62 in 3.0 mi NNE 8.1 mph - 0.00 in Snow Light Snow
2:38 AM 32.0 °F - 30.2 °F 93% 29.63 in 9.0 mi Calm Calm - 0.00 in   Overcast
2:56 AM 32.0 °F - 30.9 °F 96% 29.67 in 10.0 mi Calm Calm - 0.00 in   Overcast
3:44 AM 33.8 °F 30.8 °F 30.2 °F 87% 29.66 in 10.0 mi NE 3.5 mph - 0.00 in   Overcast
3:56 AM 33.1 °F 24.9 °F 30.9 °F 92% 29.69 in 10.0 mi NNE 10.4 mph - 0.00 in   Overcast
4:56 AM 34.0 °F 28.0 °F 32.0 °F 92% 29.71 in 10.0 mi Variable 6.9 mph - 0.01 in   Overcast
5:15 AM 33.8 °F 27.7 °F 30.2 °F 87% 29.70 in 10.0 mi NNW 6.9 mph - 0.01 in   Overcast
5:56 AM 34.0 °F 26.6 °F 30.9 °F 89% 29.75 in 10.0 mi North 9.2 mph - 0.03 in Rain Light Rain
6:56 AM 34.0 °F 31.0 °F 30.9 °F 89% 29.79 in 10.0 mi NNW 3.5 mph - 0.00 in   Overcast
7:56 AM 33.1 °F 26.1 °F 30.0 °F 89% 29.84 in 10.0 mi NNW 8.1 mph - N/A   Overcast
8:56 AM 34.0 °F 28.8 °F 30.0 °F 85% 29.88 in 10.0 mi North 5.8 mph - N/A   Overcast
9:56 AM 37.0 °F 28.9 °F 30.0 °F 76% 29.89 in 10.0 mi North 12.7 mph - 0.01 in   Overcast
10:56 AM 37.0 °F 28.5 °F 30.0 °F 76% 29.92 in 10.0 mi North 13.8 mph - N/A   Overcast
11:56 AM 39.0 °F 30.3 °F 30.0 °F 70% 29.94 in 10.0 mi North 16.1 mph - N/A   Overcast
12:56 PM 41.0 °F 32.8 °F 30.0 °F 65% 29.96 in 10.0 mi North 16.1 mph 23.0 mph N/A   Overcast
1:56 PM 37.9 °F 30.9 °F 30.0 °F 73% 29.99 in 10.0 mi NW 10.4 mph - 0.00 in Rain Light Rain
2:24 PM 35.6 °F 29.2 °F 30.2 °F 81% 29.93 in 7.0 mi WNW 8.1 mph - 0.00 in Snow Light Snow
2:52 PM 37.4 °F 29.8 °F 33.8 °F 87% 29.94 in 10.0 mi NW 11.5 mph - 0.00 in Rain Light Rain
2:56 PM 36.0 °F 29.0 °F 32.0 °F 86% 30.03 in 7.0 mi NW 9.2 mph - 0.00 in Rain Rain
3:23 PM 37.4 °F 32.1 °F 35.6 °F 93% 29.95 in 10.0 mi NNW 6.9 mph - 0.01 in Rain Light Rain
3:32 PM 37.4 °F 31.4 °F 33.8 °F 87% 29.95 in 10.0 mi North 8.1 mph - 0.01 in   Overcast
3:56 PM 37.9 °F 35.5 °F 30.9 °F 76% 30.01 in 10.0 mi NW 3.5 mph - 0.01 in   Mostly Cloudy
4:56 PM 39.0 °F - 28.9 °F 67% 30.02 in 10.0 mi Calm Calm - N/A   Scattered Clouds
5:56 PM 36.0 °F 29.6 °F 30.9 °F 82% 30.05 in 10.0 mi NNE 8.1 mph - 0.00 in Rain Light Rain
6:56 PM 35.1 °F 30.1 °F 30.0 °F 82% 30.04 in 10.0 mi ENE 5.8 mph - 0.00 in   Overcast
7:56 PM 32.0 °F 26.4 °F 28.9 °F 88% 30.06 in 10.0 mi South 5.8 mph - N/A   Scattered Clouds
8:56 PM 30.0 °F 22.4 °F 28.0 °F 92% 30.07 in 10.0 mi SSE 8.1 mph - N/A   Partly Cloudy
9:56 PM 30.0 °F 25.2 °F 27.0 °F 88% 30.04 in 10.0 mi South 4.6 mph - N/A   Clear
10:56 PM 32.0 °F 25.6 °F 27.0 °F 82% 30.03 in 10.0 mi West 6.9 mph - N/A   Overcast
11:56 PM 30.9 °F - 27.0 °F 85% 30.02 in 10.0 mi Calm Calm - N/A   Overcast